Tracking 25612 objects as of 19-May-2022
HD Live streaming from Space Station
objects crossing your sky now

COSMOS 2251 DEB

Track COSMOS 2251 DEB now!
10-day predictions


NORAD ID: 34476
Int'l Code: 1993-036TV
Perigee: 750.6 km
Apogee: 1,294.9 km
Inclination: 74.0 °
Period: 105.5 minutes
Semi major axis: 7393 km
RCS: 0.0374 m2 (small)
Launch date: June 16, 1993
Source: Commonwealth of Independent States (former USSR) (CIS)
Launch site: PLESETSK MISSILE AND SPACE COMPLEX (PKMTR)

Note: This is SATELLITE DEBRIS
aabbcc
Your satellite tracking list
Your tracking list is empty




NASA's NSSDC Master Catalog

Two Line Element Set (TLE):
1 34476U 93036TV  22138.60516175  .00002731  00000-0  21209-2 0  9991
2 34476  74.0128  85.7174 0368045 223.1138 134.0614 13.65541333657445
Source of the keplerian elements: AFSPC